{"data":{"norad_id":68716,"intl_designator":"2026-081T","name":"STARLINK-36337","alt_names":[],"object_type":"PAYLOAD","status":"ACTIVE","operator":null,"country":"US","launch_date":"2026-04-14","launch_site_code":"AFETR","launch_vehicle":null,"mission":null,"orbit_class":"UNKNOWN","rcs_meters":null,"size_class":null,"mass_kg":null,"dimensions":null,"purposes":["comms"],"wikipedia_slug":null,"has_3d_model":false,"image_url":null,"decayed_at":null,"tle_current":{"epoch":"2026-09-20T03:19:16.107168Z","epoch_age_seconds":75259,"freshness":"FRESH","line1":"1 68716U 26081T   26263.13838087  .00015777  00000+0  47705-3 0  9994","line2":"2 68716  53.1590 207.3766 0001078  89.0350 271.0776 15.34401692 24567","mean_motion":15.34401692,"eccentricity":0.0001078,"inclination_deg":53.159,"raan_deg":207.3766,"arg_perigee_deg":89.035,"mean_anomaly_deg":271.0776,"bstar":0.00047705,"rev_number":2456,"period_min":93.847654594479,"perigee_km":461.96076919538,"apogee_km":463.43565326692,"semimajor_km":6840.8352112312,"source":"CELESTRAK","updated_at":"2026-09-20T09:00:43.961529Z"}}}